Weather reports worldwide

Advertisment
Shoeburyness Landwick, United Kingdom (3693): temperature & dewpoint: 30.05.2020 07:00:00 - 05.06.2020 07:00:00 (BST)Shoeburyness Landwick, United Kingdom (3693): temperature -20cm & temperature -100cm: 30.05.2020 07:00:00 - 05.06.2020 07:00:00 (BST)Shoeburyness Landwick, United Kingdom (3693): wind speed & gusts: 30.05.2020 07:00:00 - 05.06.2020 07:00:00 (BST)Shoeburyness Landwick, United Kingdom (3693): wind direction: 30.05.2020 07:00:00 - 05.06.2020 07:00:00 (BST)Shoeburyness Landwick, United Kingdom (3693): reduced air pressure: 30.05.2020 07:00:00 - 05.06.2020 07:00:00 (BST)Shoeburyness Landwick, United Kingdom (3693): visibility: 30.05.2020 07:00:00 - 05.06.2020 07:00:00 (BST)Shoeburyness Landwick, United Kingdom (3693): sunshine duration: 30.05.2020 07:00:00 - 05.06.2020 07:00:00 (BST)Shoeburyness Landwick, United Kingdom (3693): precipitation: 30.05.2020 07:00:00 - 05.06.2020 07:00:00 (BST)
Date & Time tt [°C] td [°C] tt -20cm [°C] tt -100cm [°C] ff [km/h] ff [kn] fx [km/h] fx [kn] dd ppp [hPa] vv [km] sd [min] rr [mm]
05.06.2020 07:00:00 10,6 7,8 - - 15 8 - - W 994,4 50 0 0,0
05.06.2020 06:00:00 10,1 8,8 - - 15 8 - - WNW 994,7 50 0 1,2
05.06.2020 05:00:00 11,6 9,7 - - 15 8 - - W 995,0 12 0 0,2
05.06.2020 04:00:00 12,1 9,1 - - 13 7 - - W 995,6 50 0 0,0
05.06.2020 03:00:00 11,9 8,7 - - 13 7 - - W 996,8 50 0 0,0
05.06.2020 02:00:00 11,8 8,4 - - 15 8 - - W 997,5 50 0 0,0
05.06.2020 01:00:00 11,6 7,9 - - 13 7 - - W 998,4 50 - 0,0
05.06.2020 00:00:00 11,7 8,1 - - 8 4 - - WSW 999,3 50 0 0,0
04.06.2020 23:00:00 11,1 8,4 - - 8 4 - - WSW 1000,0 35 0 0,0
04.06.2020 22:00:00 10,5 8,5 - - 4 2 - - W 1000,6 22 0 0,0
04.06.2020 21:00:00 10,9 8,5 - - 5 3 - - W 1000,8 35 0 0,0
04.06.2020 20:00:00 11,0 8,2 - - 4 2 - - WNW 1001,0 45 0 0,0
04.06.2020 19:00:00 10,8 8,4 - - 9 5 - - NW 1001,3 45 0 0,0
04.06.2020 18:00:00 13,0 6,0 - - 15 8 - - NNW 1001,0 50 0 0,0
04.06.2020 17:00:00 14,3 5,2 - - 22 12 - - NNW 1001,1 30 0 0,0
04.06.2020 16:00:00 14,6 4,9 - - 22 12 - - NNW 1001,4 45 0 0,0
04.06.2020 15:00:00 15,3 4,6 - - 22 12 - - N 1001,5 35 42 0,0
04.06.2020 14:00:00 15,8 4,4 - - 26 14 - - N 1002,1 30 54 0,0
04.06.2020 13:00:00 14,4 5,5 - - 22 12 - - NNW 1002,3 45 0 0,0
04.06.2020 12:00:00 13,5 6,2 - - 28 15 - - NNW 1002,6 30 0 0,0
04.06.2020 11:00:00 14,3 7,0 - - 24 13 - - N 1002,5 40 18 0,0
04.06.2020 10:00:00 14,3 8,1 17,9 15,4 24 13 - - N 1002,4 40 0 0,0
04.06.2020 09:00:00 13,0 8,2 - - 26 14 - - N 1002,8 30 0 0,0
04.06.2020 08:00:00 11,7 8,9 - - 24 13 - - N 1003,1 40 0 0,0
04.06.2020 07:00:00 11,2 8,7 - - 22 12 - - NNW 1003,1 27 0 0,0
04.06.2020 06:00:00 11,3 8,9 - - 22 12 - - NNW 1003,2 35 0 0,0
04.06.2020 05:00:00 11,7 9,4 - - 21 11 - - N 1003,5 40 0 0,0
04.06.2020 04:00:00 12,0 9,7 - - 21 11 - - N 1003,8 50 0 0,0
04.06.2020 03:00:00 12,4 9,8 - - 22 12 - - N 1004,3 50 0 0,0
04.06.2020 02:00:00 12,6 9,9 - - 24 13 - - N 1005,0 50 0 0,0
04.06.2020 01:00:00 12,6 9,7 - - 21 11 - - N 1005,4 45 - 0,0
04.06.2020 00:00:00 13,3 9,6 - - 26 14 - - N 1005,8 50 0 0,0
03.06.2020 23:00:00 13,7 9,4 - - 22 12 - - NNE 1006,2 45 0 0,0
03.06.2020 22:00:00 14,3 9,3 - - 24 13 - - NNE 1006,6 45 0 0,0
03.06.2020 21:00:00 14,9 9,0 - - 26 14 - - N 1006,2 40 0 0,0
03.06.2020 20:00:00 16,3 9,1 - - 24 13 - - NNE 1006,1 40 0 0,0
03.06.2020 19:00:00 16,6 11,4 - - 15 8 - - ENE 1006,0 45 0 0,0
03.06.2020 18:00:00 16,9 12,5 - - 11 6 - - E 1006,2 35 24 0,0
03.06.2020 17:00:00 17,5 12,7 - - 15 8 - - E 1006,8 29 30 0,0
03.06.2020 16:00:00 17,1 13,0 - - 15 8 - - ESE 1007,0 29 30 0,0
03.06.2020 15:00:00 16,8 12,2 - - 15 8 - - E 1007,3 40 0 0,0
03.06.2020 14:00:00 18,4 10,1 - - 15 8 - - ESE 1007,2 45 6 0,0
03.06.2020 13:00:00 18,4 10,0 - - 15 8 - - ESE 1007,6 40 0 0,0
03.06.2020 12:00:00 18,9 9,1 - - 9 5 - - NE 1008,0 45 24 0,0
03.06.2020 11:00:00 17,7 9,0 - - 9 5 - - NNE 1008,3 50 12 0,0
03.06.2020 10:00:00 16,4 9,4 18,2 15,2 8 4 - - NE 1008,6 45 0 0,0
03.06.2020 09:00:00 15,5 11,6 - - 8 4 - - ENE 1008,7 40 0 0,0
03.06.2020 08:00:00 15,0 13,4 - - 5 3 - - NNE 1008,9 29 0 0,0
03.06.2020 07:00:00 13,8 13,6 - - 4 2 - - N 1009,3 7 0 0,0
03.06.2020 06:00:00 11,3 11,1 - - 5 3 - - N 1009,7 4,3 0 0,0
03.06.2020 05:00:00 10,9 10,7 - - 5 3 - - NNE 1009,9 3,0 0 0,0
03.06.2020 04:00:00 10,2 9,6 - - 8 4 - - NNE 1010,5 3,7 0 0,0
03.06.2020 03:00:00 10,9 10,2 - - 8 4 - - W 1010,9 12 0 0,0
03.06.2020 02:00:00 11,5 10,9 - - 4 2 - - NNW 1011,6 7 0 0,0
03.06.2020 01:00:00 10,9 9,4 - - 4 2 - - N 1012,5 21 - 0,0
03.06.2020 00:00:00 14,1 12,0 - - 9 5 - - S 1013,1 35 0 0,0
02.06.2020 23:00:00 12,6 11,4 - - 4 2 - - E 1013,8 30 0 0,0
02.06.2020 22:00:00 13,3 11,6 - - 11 6 - - ENE 1014,4 25 0 0,0
02.06.2020 21:00:00 15,0 12,3 - - 13 7 - - ENE 1014,7 30 42 0,0
02.06.2020 20:00:00 18,5 13,0 - - 21 11 - - NE 1014,5 35 60 0,0
02.06.2020 19:00:00 22,8 9,0 - - 15 8 - - N 1014,6 50 60 0,0
02.06.2020 18:00:00 23,0 9,2 - - 11 6 - - NNW 1015,1 30 30 0,0
02.06.2020 17:00:00 23,1 7,0 - - 15 8 - - NNW 1015,7 45 54 0,0
02.06.2020 16:00:00 22,2 10,7 - - 13 7 - - S 1016,4 45 54 0,0
02.06.2020 15:00:00 21,5 10,1 - - 13 7 - - S 1017,2 40 60 0,0
02.06.2020 14:00:00 20,5 11,7 - - 13 7 - - SSE 1017,9 45 60 0,0
02.06.2020 13:00:00 20,4 12,6 - - 13 7 - - SSE 1018,6 29 60 0,0
02.06.2020 12:00:00 21,4 8,9 - - 11 6 - - N 1019,1 45 60 0,0
02.06.2020 11:00:00 20,4 9,4 - - 13 7 - - N 1019,5 23 60 0,0
02.06.2020 10:00:00 18,6 10,4 - - 15 8 - - N 1020,0 40 60 -
02.06.2020 09:00:00 16,6 11,3 - - 15 8 - - NNW 1020,3 40 60 -
02.06.2020 08:00:00 13,9 10,9 - - 15 8 - - NNW 1020,5 35 60 0,0
02.06.2020 07:00:00 11,6 10,6 - - 11 6 - - NNW 1020,7 26 60 0,0
02.06.2020 06:00:00 9,8 9,4 - - 11 6 - - NW 1020,9 14 30 0,0
02.06.2020 05:00:00 9,0 8,5 - - 9 5 - - NNW 1020,9 12 0 0,0
02.06.2020 04:00:00 9,4 8,7 - - 11 6 - - N 1021,0 10 0 0,0
02.06.2020 03:00:00 10,4 9,8 - - 13 7 - - N 1021,4 23 0 0,0
02.06.2020 02:00:00 9,9 9,0 - - 9 5 - - N 1021,7 30 0 0,0
02.06.2020 01:00:00 10,9 9,7 - - 9 5 - - NNE 1022,2 30 - 0,0
02.06.2020 00:00:00 11,2 9,2 - - 9 5 - - NE 1022,4 45 0 0,0
01.06.2020 23:00:00 12,1 9,6 - - 9 5 - - ENE 1022,3 35 0 0,0
01.06.2020 22:00:00 13,2 10,1 - - 9 5 - - ENE 1022,5 40 0 0,0
01.06.2020 21:00:00 14,9 10,0 - - 16 9 - - ENE 1022,0 50 48 0,0
01.06.2020 20:00:00 16,3 11,4 - - 21 11 - - ENE 1021,8 40 60 0,0
01.06.2020 19:00:00 18,1 11,2 - - 18 10 - - ENE 1021,8 30 60 0,0
01.06.2020 18:00:00 19,0 10,4 - - 24 13 - - ENE 1021,8 35 60 0,0
01.06.2020 17:00:00 20,4 11,3 - - 24 13 - - ENE 1022,3 40 60 0,0
01.06.2020 16:00:00 20,4 11,9 - - 22 12 - - E 1022,3 40 60 0,0
01.06.2020 15:00:00 21,5 10,1 - - 21 11 - - E 1022,5 50 60 0,0
01.06.2020 14:00:00 19,6 11,0 - - 18 10 - - E 1022,8 45 60 0,0
01.06.2020 13:00:00 18,9 12,0 - - 21 11 - - E 1023,1 30 60 0,0
01.06.2020 12:00:00 19,2 11,9 - - 22 12 - - E 1023,1 30 60 0,0
01.06.2020 11:00:00 20,3 10,9 - - 16 9 - - NE 1023,0 30 60 0,0
01.06.2020 10:00:00 18,8 11,6 17,5 15,0 15 8 - - NE 1023,0 35 60 0,0
01.06.2020 09:00:00 17,6 12,3 - - 15 8 - - NE 1023,1 30 60 0,0
01.06.2020 08:00:00 15,4 12,4 - - 16 9 - - NE 1022,9 30 60 0,0
01.06.2020 07:00:00 13,3 11,9 - - 13 7 - - NNE 1023,0 25 60 0,0
01.06.2020 06:00:00 10,7 10,3 - - 11 6 - - N 1022,7 20 12 0,0
01.06.2020 05:00:00 9,7 9,1 - - 11 6 - - N 1022,6 19 0 0,0
01.06.2020 04:00:00 9,9 9,0 - - 9 5 - - N 1022,6 15 0 0,0
01.06.2020 03:00:00 10,8 9,7 - - 11 6 - - N 1022,8 19 0 0,0
01.06.2020 02:00:00 12,5 10,9 - - 13 7 - - NNE 1022,9 23 0 0,0
01.06.2020 01:00:00 13,1 10,8 - - 13 7 - - NE 1023,1 19 - 0,0
01.06.2020 00:00:00 13,8 10,7 - - 18 10 - - NE 1023,2 25 0 0,0
31.05.2020 23:00:00 13,9 10,6 - - 22 12 - - ENE 1023,2 35 0 0,0
31.05.2020 22:00:00 14,2 10,1 - - 24 13 - - ENE 1023,3 30 0 0,0
31.05.2020 21:00:00 14,6 10,2 - - 22 12 - - ENE 1023,1 40 48 0,0
31.05.2020 20:00:00 16,0 9,4 - - 28 15 46 25 ENE 1023,0 40 60 0,0
31.05.2020 19:00:00 17,0 8,2 - - 31 17 - - ENE 1022,9 45 60 0,0
31.05.2020 18:00:00 18,0 7,4 - - 29 16 - - ENE 1022,9 40 60 0,0
31.05.2020 17:00:00 19,0 8,5 - - 31 17 - - E 1023,1 35 60 0,0
31.05.2020 16:00:00 18,8 8,3 - - 29 16 48 26 E 1023,4 35 60 0,0
31.05.2020 15:00:00 19,3 10,1 - - 29 16 - - E 1023,4 45 60 0,0
31.05.2020 14:00:00 19,6 8,5 - - 24 13 - - E 1023,5 35 60 0,0
31.05.2020 13:00:00 20,2 8,7 - - 28 15 - - E 1023,6 40 60 0,0
31.05.2020 12:00:00 19,4 10,0 - - 24 13 - - E 1023,6 29 60 0,0
31.05.2020 11:00:00 18,7 9,7 - - 22 12 - - E 1023,4 35 60 0,0
31.05.2020 10:00:00 18,5 10,0 17,5 15,0 24 13 - - E 1023,3 45 60 0,0
31.05.2020 09:00:00 17,7 9,7 - - 22 12 - - E 1023,0 30 60 0,0
31.05.2020 08:00:00 17,0 10,7 - - 21 11 - - E 1022,9 50 60 0,0
31.05.2020 07:00:00 15,6 12,3 - - 15 8 - - ENE 1022,7 16 60 0,0
31.05.2020 06:00:00 13,5 12,7 - - 11 6 - - ENE 1022,4 10 18 0,0
31.05.2020 05:00:00 11,9 11,1 - - 13 7 - - NE 1021,9 9 0 0,0
31.05.2020 04:00:00 11,7 10,4 - - 9 5 - - NNE 1022,1 13 0 0,0
31.05.2020 03:00:00 12,9 10,7 - - 16 9 - - ENE 1022,1 18 0 0,0
31.05.2020 02:00:00 13,3 9,3 - - 11 6 - - NE 1022,3 25 0 0,0
31.05.2020 01:00:00 13,1 9,3 - - 13 7 - - NNE 1022,6 20 - 0,0
31.05.2020 00:00:00 14,6 9,1 - - 18 10 - - ENE 1022,8 29 0 0,0
30.05.2020 23:00:00 14,2 9,5 - - 15 8 - - ENE 1022,6 27 0 0,0
30.05.2020 22:00:00 14,7 9,7 - - 18 10 - - ENE 1022,3 35 0 0,0
30.05.2020 21:00:00 15,3 9,6 - - 22 12 - - ENE 1022,0 26 42 0,0
30.05.2020 20:00:00 16,4 9,3 - - 24 13 - - ENE 1021,9 30 60 0,0
30.05.2020 19:00:00 17,5 8,9 - - 29 16 - - E 1022,1 45 60 0,0
30.05.2020 18:00:00 18,5 8,0 - - 31 17 - - E 1022,1 29 60 0,0
30.05.2020 17:00:00 19,0 8,5 - - 31 17 - - E 1022,5 45 60 0,0
30.05.2020 16:00:00 19,9 9,8 - - 29 16 - - E 1022,6 25 60 0,0
30.05.2020 15:00:00 19,3 9,4 - - 26 14 - - E 1023,1 23 60 0,0
30.05.2020 14:00:00 19,8 8,3 - - 26 14 - - E 1023,2 35 60 0,0
30.05.2020 13:00:00 19,9 10,7 - - 24 13 - - E 1023,6 35 60 0,0
30.05.2020 12:00:00 19,1 11,6 - - 21 11 - - ENE 1023,9 30 60 0,0
30.05.2020 11:00:00 18,7 12,3 - - 16 9 - - ENE 1024,1 19 60 0,0
30.05.2020 10:00:00 17,8 11,1 17,2 14,9 15 8 - - E 1024,2 27 60 0,0
30.05.2020 09:00:00 16,7 11,6 - - 16 9 - - ENE 1024,2 13 60 0,0
30.05.2020 08:00:00 15,7 12,5 - - 15 8 - - ENE 1024,0 20 60 0,0
30.05.2020 07:00:00 14,0 12,8 - - 11 6 - - ENE 1024,0 11 60 0,0

tt = temperature
td = dewpoint
tt -20cm = temperature -20cm
tt -100cm = temperature -100cm
ff = wind speed
fx = gusts
dd = wind direction
ppp = reduced air pressure
vv = visibility
sd = sunshine duration
rr = precipitation

Next stations